CW9259 Weather Reports


Display with metric or nautical units.
time (UTC)temp
F
wind
direction
speed
MPH
gust
MPH
rain 1hr
in
rain 24hr
in
rain mn
in
humidity
%
barometer
mb
20260504223126 57 316 13.0 24.0 0.00 0.16 0.16 59 1013.5
20260504221557 57 317 17.0 26.0 0.00 0.16 0.16 59 1013.7
20260504220136 57 339 13.0 26.0 0.00 0.16 0.16 60 1014.0
20260504214557 57 302 11.0 22.0 0.00 0.16 0.16 63 1014.1
20260504213139 56 267 12.0 21.0 0.00 0.16 0.16 64 1014.3
20260504211601 56 284 12.0 25.0 0.00 0.16 0.16 64 1014.3
20260504210129 56 297 12.0 20.0 0.00 0.16 0.16 66 1014.4
20260504204602 56 281 10.0 24.0 0.00 0.16 0.16 67 1014.6
20260504203139 55 310 12.0 21.0 0.01 0.16 0.16 68 1014.8
20260504201604 54 325 15.0 25.0 0.01 0.16 0.16 71 1014.7
20260504200128 54 302 11.0 26.0 0.02 0.16 0.16 73 1014.7
20260504194557 53 315 11.0 22.0 0.02 0.16 0.16 75 1014.7
20260504193135 52 296 12.0 24.0 0.03 0.15 0.15 78 1014.8
20260504191610 52 311 17.0 25.0 0.05 0.15 0.15 78 1014.5
20260504190140 53 327 13.0 30.0 0.06 0.14 0.14 77 1014.5
20260504184557 52 324 15.0 35.0 0.06 0.13 0.13 78 1014.3
20260504183130 53 294 16.0 25.0 0.06 0.12 0.12 78 1014.5
20260504181602 54 300 16.0 27.0 0.07 0.10 0.10 76 1014.5
20260504180137 54 355 12.0 21.0 0.07 0.09 0.09 76 1014.5
20260504174559 55 282 12.0 21.0 0.07 0.07 0.07 75 1014.5
20260504173126 55 313 4.0 9.0 0.06 0.06 0.06 80 1014.5
20260504171557 57 360 2.0 10.0 0.03 0.03 0.03 80 1014.6
20260504170134 58 297 2.0 4.0 0.02 0.02 0.02 80 1014.4
20260504160128 60 167 1.0 3.0 0.00 0.00 0.00 68 1013.7
20260504150123 62 289 10.0 18.0 0.00 0.00 0.00 58 1014.0
20260504140140 62 253 5.0 15.0 0.00 0.00 0.00 59 1014.4
20260504130139 60 308 8.0 17.0 0.00 0.00 0.00 64 1014.9
20260504120133 59 260 8.0 15.0 0.00 0.00 0.00 70 1015.3
20260504100130 62 40 3.0 5.0 0.00 0.00 0.00 62 1015.4
20260504090124 61 97 3.0 6.0 0.00 0.00 0.00 62 1015.6
20260504081603 59 75 2.0 4.0 0.00 0.00 0.00 64 1015.3
20260504080140 58 103 0.0 1.0 0.00 0.00 0.00 69 1015.3
20260504070133 56 95 0.0 0.0 0.00 0.00 0.00 75 1014.8
20260504060125 54 98 1.0 3.0 0.00 0.00 0.00 85 1014.3
20260504050121 53 325 1.0 2.0 0.00 0.00 0.00 86 1014.0
20260504044557 53 321 0.0 0.0 0.00 0.00 0.00 85 1013.9
20260504043128 53 321 0.0 2.0 0.00 0.00 0.00 84 1013.7
20260504041558 53 321 0.0 3.0 0.00 0.00 0.00 84 1013.6
20260504040134 53 334 3.0 4.0 0.00 0.00 0.00 84 1013.5
20260504034558 53 312 0.0 2.0 0.00 0.00 0.00 84 1013.7
20260504033132 52 337 3.0 4.0 0.00 0.00 0.00 85 1013.6
20260504031601 52 304 0.0 0.0 0.00 0.00 0.00 85 1013.7
20260504030130 53 304 0.0 0.0 0.00 0.00 0.00 84 1013.6
20260504024559 53 268 0.0 4.0 0.00 0.00 0.00 84 1013.6
20260504023140 53 321 2.0 4.0 0.00 0.00 0.00 84 1013.6
20260504021559 53 355 0.0 2.0 0.00 0.00 0.00 83 1013.9
20260504020126 54 344 1.0 3.0 0.00 0.00 0.00 82 1013.9
20260504014607 54 319 3.0 5.0 0.00 0.00 0.00 81 1013.7
20260504013132 55 331 1.0 2.0 0.00 0.00 0.00 80 1013.9
20260504011559 55 332 2.0 3.0 0.00 0.00 0.00 80 1014.0
20260504010141 55 198 1.0 3.0 0.00 0.00 0.00 80 1014.2
20260504004559 55 167 1.0 3.0 0.00 0.00 0.00 80 1014.2
20260504003130 56 209 0.0 2.0 0.00 0.00 0.00 78 1014.0
20260504001602 57 271 0.0 6.0 0.00 0.00 0.00 76 1013.9
20260504000144 57 294 4.0 5.0 0.00 0.00 0.00 76 1014.1
20260503234558 56 313 3.0 5.0 0.00 0.00 0.00 77 1014.2
20260503233129 56 332 2.0 5.0 0.00 0.00 0.00 79 1014.4
20260503231558 55 345 2.0 4.0 0.00 0.00 0.00 81 1014.5
20260503230002 55 256 1.0 4.0 0.00 0.00 0.00 81 1014.8
20260503224604 55 51 0.0 2.0 0.00 0.00 0.00 82 1014.7